Terminal Aerodrome Forecast
Issued by NWS

Home | Current Version | Previous Version | Text Only | Print | Product List | Glossary On
Versions: 1 2 3 4 5 6 7 8 9 10 11 12 13 14 15 16 17 18 19 20 21
000
FTUS41 KGYX 241454 AAB
TAFLEB
TAF AMD
KLEB 241454Z 2415/2512 19005KT 5SM -RA BR OVC015 WS020/17060KT
     FM241500 20012G22KT P6SM OVC025=

USA.gov is the U.S. government's official web portal to all federal, state and local government web resources and services.